DW2182 Weather Reports


time (UTC)temp
C
wind
direction
speed
KPH
gust
KPH
rain 1hr
cm
rain 24hr
cm
rain mn
cm
humidity
%
barometer
mb
20260902051516 20 135 3.2 8.0 0.84 0.84 0.25 94 1014.7
20260902050516 21 113 16.1 35.4 0.66 0.66 0.08 92 1017.9
20260902045516 22 90 3.2 6.4 0.53 0.53 0.53 94 1013.4
20260902044516 22 45 1.6 4.8 0.46 0.46 0.46 94 1013.4
20260902043537 22 90 1.6 9.7 0.33 0.33 0.33 92 1012.8
20260902042516 23 113 3.2 6.4 0.05 0.05 0.05 86 1013.6
20260902041536 24 0.0 1.6 0.00 0.00 0.00 83 1012.5
20260902040516 24 23 1.6 4.8 0.00 0.00 0.00 82 1012.8
20260902035517 24 23 3.2 6.4 0.00 0.00 0.00 82 1012.6
20260902034516 24 23 3.2 8.0 0.00 0.00 0.00 83 1012.1
20260902033516 23 45 3.2 6.4 0.00 0.00 0.00 84 1012.2
20260902032516 23 45 3.2 8.0 0.00 0.00 0.00 85 1012.2
20260902031536 23 23 3.2 4.8 0.00 0.00 0.00 85 1012.3
20260902030516 23 23 1.6 4.8 0.00 0.00 0.00 85 1012.7
20260902025516 23 0.0 3.2 0.00 0.00 0.00 86 1012.5
20260902024516 24 23 1.6 4.8 0.00 0.00 0.00 85 1013.0
20260902023516 24 45 1.6 4.8 0.00 0.00 0.00 85 1012.8
20260902022516 24 45 1.6 3.2 0.00 0.00 0.00 85 1012.4
20260902021516 24 45 1.6 4.8 0.00 0.00 0.00 84 1012.4
20260902020516 24 0.0 0.0 0.00 0.00 0.00 84 1012.4
20260902015617 24 45 1.6 4.8 0.00 0.00 0.00 84 1012.5
20260902014516 24 45 1.6 4.8 0.00 0.00 0.00 84 1012.2
20260902013516 25 0.0 4.8 0.00 0.00 0.00 84 1012.2
20260902012516 25 0.0 0.0 0.00 0.00 0.00 83 1012.2
20260902011516 25 0.0 0.0 0.00 0.00 0.00 83 1012.2
20260902010516 25 45 3.2 4.8 0.00 0.00 0.00 83 1012.1
20260902005517 25 45 1.6 3.2 0.00 0.00 0.00 82 1012.1
20260902004536 26 23 1.6 4.8 0.00 0.00 0.00 82 1012.3
20260902003516 26 45 1.6 4.8 0.00 0.00 0.00 81 1012.3
20260902002516 26 23 1.6 4.8 0.00 0.00 0.00 80 1012.2
20260902001556 26 23 3.2 8.0 0.00 0.00 0.00 80 1012.1
20260902000516 26 23 1.6 4.8 0.00 0.00 0.00 81 1012.3
20260901235516 27 23 1.6 6.4 0.00 0.00 0.00 80 1012.4
20260901234516 27 23 3.2 8.0 0.00 0.00 0.00 79 1012.4
20260901233516 27 45 3.2 6.4 0.00 0.00 0.00 79 1012.5
20260901232516 27 45 3.2 9.7 0.00 0.00 0.00 79 1012.6
20260901231515 28 23 1.6 4.8 0.00 0.00 0.00 78 1012.6
20260901230516 28 23 1.6 4.8 0.00 0.00 0.00 78 1012.5
20260901225516 28 45 1.6 4.8 0.00 0.00 0.00 77 1012.6
20260901224536 28 45 3.2 6.4 0.00 0.00 0.00 77 1012.5
20260901223516 28 45 1.6 4.8 0.00 0.00 0.00 77 1012.6
20260901222517 28 0.0 3.2 0.00 0.00 0.00 77 1012.6
20260901221516 28 0.0 4.8 0.00 0.00 0.00 78 1012.7
20260901220536 28 45 1.6 4.8 0.00 0.00 0.00 76 1012.5
20260901215516 28 45 1.6 4.8 0.00 0.00 0.00 77 1012.6
20260901214516 28 45 1.6 3.2 0.00 0.00 0.00 77 1012.6
20260901213516 28 0.0 3.2 0.00 0.00 0.00 76 1012.7
20260901212516 28 45 1.6 3.2 0.00 0.00 0.00 76 1012.9
20260901211516 28 0.0 3.2 0.00 0.00 0.00 75 1012.8
20260901210516 28 0.0 3.2 0.00 0.00 0.00 75 1012.8
20260901205515 28 45 1.6 3.2 0.00 0.00 0.00 75 1012.9
20260901204515 28 45 1.6 4.8 0.00 0.00 0.00 75 1012.9
20260901203515 28 45 1.6 4.8 0.00 0.00 0.00 74 1012.9
20260901202515 28 68 1.6 6.4 0.00 0.00 0.00 73 1012.9
20260901201515 28 68 1.6 3.2 0.00 0.00 0.00 74 1013.0
20260901200516 28 0.0 3.2 0.00 0.00 0.00 76 1013.1
20260901195516 28 68 1.6 6.4 0.00 0.00 0.00 73 1013.1
20260901194517 28 90 1.6 4.8 0.00 0.00 0.00 72 1013.1
20260901193515 28 45 1.6 4.8 0.00 0.00 0.00 73 1013.1
20260901192537 28 45 1.6 4.8 0.00 0.00 0.00 73 1013.1
20260901191515 28 45 1.6 6.4 0.00 0.00 0.00 73 1013.1
20260901190518 28 68 1.6 4.8 0.00 0.00 0.00 70 1013.3
20260901185518 28 68 1.6 4.8 0.00 0.00 0.00 71 1013.1
20260901184538 28 0.0 0.0 0.00 0.00 0.00 75 1013.1
20260901183517 28 0.0 3.2 0.00 0.00 0.00 73 1013.5
20260901182537 28 135 1.6 4.8 0.00 0.00 0.00 70 1013.7
20260901181517 28 0.0 0.0 0.00 0.00 0.00 70 1014.0
20260901180517 28 68 1.6 4.8 0.00 0.00 0.00 72 1014.0
20260901175518 28 68 1.6 4.8 0.00 0.00 0.00 71 1014.1
20260901174518 27 45 1.6 4.8 0.00 0.00 0.00 73 1014.1
20260901173515 27 45 1.6 4.8 0.00 0.00 0.00 72 1014.3
20260901172517 27 45 1.6 4.8 0.00 0.00 0.00 75 1013.9
20260901171518 27 45 1.6 4.8 0.00 0.00 0.00 72 1014.3
20260901170518 27 45 1.6 6.4 0.00 0.00 0.00 71 1014.5
20260901165518 27 23 1.6 4.8 0.00 0.00 0.00 72 1014.6
20260901164518 27 0 1.6 8.0 0.00 0.00 0.00 75 1014.4
20260901163517 26 23 3.2 6.4 0.00 0.00 0.00 76 1014.4
20260901162517 26 23 3.2 6.4 0.00 0.00 0.00 77 1014.4
20260901161537 26 45 1.6 6.4 0.00 0.00 0.00 76 1014.5
20260901160517 26 45 1.6 4.8 0.00 0.00 0.00 77 1014.5
20260901155517 26 0.0 0.0 0.00 0.00 0.00 75 1014.4
20260901154518 26 0.0 3.2 0.00 0.00 0.00 75 1014.5
20260901153519 25 23 1.6 3.2 0.00 0.00 0.00 77 1014.5
20260901152538 25 23 1.6 6.4 0.00 0.00 0.00 76 1014.4
20260901151518 24 23 1.6 3.2 0.00 0.00 0.00 78 1014.4
20260901150538 23 0.0 1.6 0.00 0.00 0.00 80 1014.3
20260901145558 23 23 1.6 4.8 0.00 0.00 0.00 80 1014.4
20260901144518 23 0.0 0.0 0.00 0.00 0.00 80 1014.5
20260901143518 23 0.0 0.0 0.00 0.00 0.00 84 1014.4
20260901142518 22 0.0 0.0 0.00 0.00 0.00 84 1014.3
20260901141518 22 0.0 0.0 0.00 0.00 0.00 85 1014.5
20260901140518 22 0.0 0.0 0.00 0.00 0.00 86 1014.6
20260901135518 22 0.0 0.0 0.00 0.00 0.00 88 1014.6
20260901134518 21 0.0 0.0 0.00 0.00 0.00 90 1014.6
20260901133517 20 0.0 0.0 0.00 0.00 0.00 92 1014.6
20260901132517 20 0.0 0.0 0.00 0.00 0.00 94 1014.8
20260901131517 19 0.0 0.0 0.00 0.00 0.00 96 1014.7
20260901130517 18 0.0 0.0 0.00 0.00 0.00 96 1014.5
20260901125537 18 0.0 0.0 0.00 0.00 0.00 96 1014.4
20260901124537 18 0.0 0.0 0.00 0.00 0.00 96 1014.4
20260901123537 18 0.0 0.0 0.00 0.00 0.00 96 1014.2
20260901122517 17 0.0 0.0 0.00 0.00 0.00 96 1014.2
20260901121517 17 0.0 0.0 0.00 0.00 0.00 96 1014.2
20260901120517 17 0.0 0.0 0.00 0.00 0.00 96 1014.1
20260901115517 17 0.0 0.0 0.00 0.00 0.00 96 1014.0
20260901114517 17 0.0 1.6 0.00 0.00 0.00 96 1014.2
20260901113518 17 0.0 0.0 0.00 0.00 0.00 96 1014.1
20260901112517 17 0.0 0.0 0.00 0.00 0.00 96 1014.0
20260901111517 17 0.0 0.0 0.00 0.00 0.00 96 1013.9
20260901110517 17 0.0 0.0 0.00 0.00 0.00 96 1014.0
20260901105517 17 0.0 0.0 0.00 0.00 0.00 96 1013.9
20260901104517 17 0.0 0.0 0.00 0.00 0.00 96 1013.8
20260901103517 17 0.0 0.0 0.00 0.00 0.00 96 1013.8
20260901102557 17 0.0 0.0 0.00 0.00 0.00 96 1013.8
20260901101517 17 0.0 0.0 0.00 0.00 0.00 96 1013.7
20260901100517 17 0.0 0.0 0.00 0.00 0.00 96 1013.6
20260901095517 17 0.0 0.0 0.00 0.00 0.00 96 1013.5
20260901094517 17 0.0 0.0 0.00 0.00 0.00 96 1013.5
20260901093517 17 0.0 0.0 0.00 0.00 0.00 96 1013.5
20260901092517 17 0.0 0.0 0.00 0.00 0.00 96 1013.6
20260901091517 17 0.0 0.0 0.00 0.00 0.00 96 1013.5
20260901090517 17 0.0 0.0 0.00 0.00 0.00 96 1013.6
20260901085557 17 0.0 0.0 0.00 0.00 0.00 96 1013.4
20260901084537 18 0.0 0.0 0.00 0.00 0.00 95 1013.4
20260901083517 18 0.0 0.0 0.00 0.00 0.00 96 1013.3
20260901082516 18 0.0 0.0 0.00 0.00 0.00 95 1013.4
20260901081517 18 0.0 0.0 0.00 0.00 0.00 95 1013.7
20260901080541 18 0.0 0.0 0.00 0.00 0.00 95 1013.6
20260901075517 18 0.0 0.0 0.00 0.00 0.00 95 1013.5
20260901074517 18 0.0 0.0 0.00 0.00 0.00 95 1013.6
20260901073537 18 0.0 0.0 0.00 0.00 0.00 95 1013.5
20260901072516 18 0.0 0.0 0.00 0.00 0.00 95 1013.5
20260901071537 18 0.0 0.0 0.00 0.00 0.00 95 1013.5
20260901070517 18 0.0 0.0 0.00 0.00 0.00 95 1013.6
20260901065517 18 0.0 0.0 0.00 0.00 0.00 95 1013.6
20260901064537 18 0.0 0.0 0.00 0.00 0.00 95 1013.7
20260901063517 18 0.0 0.0 0.00 0.00 0.00 95 1013.7
20260901062519 18 0.0 0.0 0.00 0.00 0.00 95 1013.9
20260901061517 18 0.0 0.0 0.00 0.00 0.00 94 1013.8
20260901060517 18 0.0 0.0 0.00 0.00 0.00 94 1013.6
20260901055516 18 0.0 0.0 0.00 0.00 0.00 94 1013.8
20260901054517 19 0.0 0.0 0.00 0.00 0.00 94 1013.8
20260901053516 19 0.0 0.0 0.00 0.00 0.00 94 1013.8
20260901052516 19 0.0 0.0 0.00 0.00 0.00 94 1013.8